[[{"header":{"parameterUnit":"m.s-1","parameterCategory":1,"la1":30.2991,"la2":30.254,"lo1":-89.0895,"lo2":-89.0444,"dy":0.0017,"dx":0.0017,"nx":28,"ny":28,"refTime":"2024-02-05T03:00:00:Z","depth":0,"parameterNumber":2,"parameterNumberName":"U-component_of_WINDS"},"data":[0,0,0,0,0,0,0,0,0,0,0,0,0,0,0,0,0,0,0,0,0,0,0,0,0,0,0,0,0,0,0,0,0,0,0,0,0,0,0,0,0,0,0,0,0,0,0,0,0,0,0,0,0,0,0,0,0,0,1.7942,1.7941,0,1.7895,1.7895,1.7894,1.7729,1.7725,1.7721,1.7718,1.7672,1.7674,1.7676,0,0,0,0,0,0,0,0,0,0,0,0,0,1.7893,1.7895,1.7942,1.7941,1.7941,1.7895,1.7895,1.7894,1.7729,1.7725,1.772,1.7716,1.7671,1.7673,1.7676,0,0,0,0,0,0,0,0,0,0,0,0,0,1.7887,1.7895,1.7942,1.7853,1.7845,1.7895,1.7895,1.7894,1.773,1.7725,1.7719,1.7714,1.767,1.7673,1.7677,1.781,0,0,1.7687,1.7688,0,0,0,0,0,0,0,0,1.7888,1.7889,1.7867,1.7859,1.785,1.7812,1.786,1.7866,1.7732,1.7774,1.7718,1.7711,1.7723,1.7722,1.7725,1.7808,1.7806,1.7687,1.7689,1.7691,1.7692,0,0,0,0,0,0,0,1.7888,1.789,1.7923,1.7867,1.7856,1.7817,1.781,1.7861,1.778,1.777,1.7757,1.7754,1.7717,1.7722,1.7723,1.7805,1.7687,1.769,1.7692,1.7694,1.8,1.8006,0,0,0,0,0,0,1.7901,1.7892,1.7925,1.7922,1.7855,1.7823,1.7815,1.783,1.7779,1.7766,1.7759,1.7747,1.7719,1.7719,1.7721,1.7877,1.7691,1.7694,1.7696,1.7994,1.8002,1.8008,0,0,0,0,0,0,1.7901,1.7905,1.7927,1.7904,1.7903,1.7829,1.7848,1.7832,1.7837,1.7771,1.7757,1.7779,1.7715,1.7716,1.779,1.7873,1.7695,1.7699,1.7987,1.7997,1.8005,1.8189,0,0,0,0,0,0,1.79,1.7906,1.7955,1.7906,1.7905,1.7996,1.7853,1.7835,1.7843,1.7826,1.7786,1.7774,1.7711,1.7786,1.7794,1.7874,1.7701,1.7979,1.7991,1.8002,1.8175,1.8203,1.8227,0,0,0,0,0,1.7899,1.8008,1.7958,1.7963,1.7964,1.8001,1.8001,1.7925,1.785,1.79,1.7858,1.7775,1.7863,1.7795,1.7802,1.7885,1.7974,1.7988,1.8001,1.8164,1.8198,1.8227,0,0,0,0,0,0,1.8067,1.7999,1.7944,1.804,1.8028,1.7973,1.8032,1.7963,1.7972,1.7956,1.7862,1.7855,1.7944,1.7921,1.7847,1.8014,1.7905,1.7921,1.8026,1.8058,1.8083,1.8087,1.7704,0,0,0,0,0,1.8116,1.815,1.8089,1.818,1.8177,1.8107,1.812,1.8063,1.8047,1.8041,1.8004,1.7993,1.8018,1.8036,1.8055,1.8171,1.8162,1.8233,1.8259,1.828,1.8296,1.836,1.8391,1.8054,1.8054,1.8053,0,0,1.8216,1.8183,1.821,1.8214,1.8197,1.8238,1.8103,1.815,1.8179,1.8048,1.8116,1.8091,1.8071,1.8169,1.8209,1.8153,1.8387,1.8298,1.8316,1.8319,1.8377,1.8409,1.8438,1.8063,1.8061,1.806,0,0,1.8419,1.8397,1.8472,1.846,1.8437,1.8391,1.8409,1.8366,1.8344,1.8412,1.8315,1.835,1.8394,1.8386,1.8387,1.8594,1.852,1.8603,1.874,1.8804,1.883,1.8853,1.8931,1.8959,1.8618,1.8619,1.8619,0,1.8547,1.8602,1.8519,1.8574,1.858,1.8464,1.8542,1.8533,1.8519,1.8527,1.8464,1.852,1.8499,1.8595,1.8646,1.865,1.8671,1.8607,1.8833,1.8855,1.8876,1.8948,1.8977,1.8629,1.8628,1.8627,1.8626,0,1.8762,1.8802,1.8866,1.8856,1.8869,1.8935,1.8865,1.8889,1.8833,1.8794,1.8867,1.8838,1.8851,1.8869,1.8814,1.8959,1.8925,1.8849,1.8737,1.892,1.8987,1.9014,1.8644,1.8641,1.8637,1.8635,0,0,1.9067,1.9015,1.904,1.9036,1.9006,1.9036,1.9099,1.9112,1.9136,1.9132,1.9184,1.9226,1.9157,1.916,1.9103,1.9159,1.9329,1.9076,1.9074,1.9126,1.9492,1.9551,1.9584,1.928,1.9285,1.9288,1.9495,0,1.9262,1.9365,1.9296,1.9411,1.945,1.9343,1.9398,1.9387,1.9353,1.9383,1.9345,1.9379,1.9283,1.9284,1.9335,1.9298,1.9402,1.9282,1.933,1.9332,1.9339,1.9618,1.968,1.9876,1.952,1.9524,1.9527,0,1.9503,1.9512,1.9632,1.9598,1.9611,1.9662,1.9672,1.97,1.9687,1.9659,1.9665,1.9596,1.9657,1.9548,1.9633,1.9554,1.9569,1.9555,1.9561,1.9563,1.9442,1.9631,1.9936,1.9967,1.9567,1.9564,1.9561,0,1.9718,1.9759,1.9837,1.9837,1.9799,1.9838,1.9824,1.9805,1.982,1.9829,1.9838,1.9854,1.9864,1.9879,1.9817,1.9742,1.9913,1.9797,1.9894,1.9896,1.9934,1.9933,2.0249,1.9943,1.9942,1.9942,1.9941,0,1.9944,2.0023,1.9933,1.9982,2.0068,1.9988,2.0076,2.0051,2.0037,2.008,1.9988,2.0032,1.9946,1.9982,1.9934,2.0015,2.0019,2.0,1.9986,2.0009,2.0012,2.0019,2.0004,1.9949,1.9948,1.9946,1.9945,0,2.0198,2.0141,2.022,2.0179,2.0171,2.0237,2.0202,2.0247,2.0208,2.0265,2.0274,2.0215,2.0252,2.0192,2.0221,2.0189,2.0303,2.0267,2.0308,2.0298,2.04,2.0392,2.0732,2.0774,2.044,2.0443,2.0445,0,2.0347,2.0405,2.0372,2.0395,2.0387,2.0424,2.0439,2.0365,2.0385,2.0378,2.0425,2.0454,2.0474,2.054,2.05,2.0524,2.049,2.0607,2.0492,2.0515,2.0495,2.0493,2.05,2.0631,2.0635,2.0638,2.0641,0,2.0618,2.0589,2.0613,2.0632,2.0653,2.0663,2.0666,2.069,2.0612,2.064,2.0678,2.0694,2.0726,2.0759,2.0773,2.076,2.069,2.0678,2.0702,2.0726,2.0749,2.0741,2.0374,2.067,2.0667,2.0665,2.0664,2.0662,2.0825,2.0874,2.086,2.0892,2.0888,2.0895,2.0936,2.0904,2.0934,2.0955,2.091,2.096,2.095,2.0963,2.0959,2.0998,2.0947,2.0981,2.099,2.1,2.1018,2.0742,2.1001,2.1,2.0999,2.0998,2.0997,0,2.1094,2.1081,2.1112,2.1121,2.1148,2.108,2.1081,2.1109,2.1154,2.1151,2.1174,2.122,2.1252,2.1217,2.1243,2.1282,2.1251,2.1292,2.1289,2.1288,2.1061,2.1038,2.1317,2.1317,2.1317,2.1317,2.1317,2.1317,2.1237,2.1317,2.1287,2.1366,2.1352,2.14,2.1408,2.1415,2.1413,2.1469,2.1495,2.1472,2.1458,2.1483,2.1511,2.15,2.1515,2.1569,2.1547,2.1335,2.1304,2.1274,2.1253,2.1572,2.1572,2.1771,2.1773,2.1774]},{"header":{"parameterUnit":"m.s-1","parameterCategory":1,"la1":30.2991,"la2":30.254,"lo1":-89.0895,"lo2":-89.0444,"dy":0.0017,"dx":0.0017,"nx":28,"ny":28,"refTime":"2024-02-05T03:00:00:Z","depth":0,"parameterNumber":3,"parameterNumberName":"V-component_of_WINDS"},"data":[0,0,0,0,0,0,0,0,0,0,0,0,0,0,0,0,0,0,0,0,0,0,0,0,0,0,0,0,0,0,0,0,0,0,0,0,0,0,0,0,0,0,0,0,0,0,0,0,0,0,0,0,0,0,0,0,0,0,-2.9115,-2.9115,0,-2.9117,-2.9117,-2.9117,-2.92,-2.9202,-2.9205,-2.9207,-2.9202,-2.92,-2.9198,0,0,0,0,0,0,0,0,0,0,0,0,0,-2.9176,-2.9175,-2.9115,-2.9115,-2.9115,-2.9117,-2.9117,-2.9117,-2.92,-2.9202,-2.9205,-2.9208,-2.9203,-2.92,-2.9198,0,0,0,0,0,0,0,0,0,0,0,0,0,-2.9161,-2.9174,-2.9115,-2.9157,-2.9161,-2.9117,-2.9117,-2.9117,-2.9199,-2.9203,-2.9206,-2.9209,-2.9204,-2.9201,-2.9197,-2.9112,0,0,-2.9188,-2.9186,0,0,0,0,0,0,0,0,-2.9162,-2.9159,-2.9151,-2.9154,-2.9158,-2.9162,-2.9137,-2.9115,-2.9198,-2.9184,-2.9207,-2.921,-2.9186,-2.9184,-2.9177,-2.9112,-2.9112,-2.9187,-2.9185,-2.9184,-2.9183,0,0,0,0,0,0,0,-2.9163,-2.9159,-2.9116,-2.915,-2.9155,-2.9173,-2.9175,-2.9134,-2.9166,-2.9186,-2.9192,-2.9191,-2.9188,-2.918,-2.9178,-2.9112,-2.9187,-2.9184,-2.9183,-2.9181,-2.8976,-2.8973,0,0,0,0,0,0,-2.9159,-2.9159,-2.9116,-2.9116,-2.9168,-2.917,-2.9171,-2.9157,-2.9167,-2.9172,-2.9189,-2.9195,-2.9184,-2.9181,-2.9178,-2.9078,-2.9184,-2.9181,-2.9179,-2.8979,-2.8975,-2.8971,0,0,0,0,0,0,-2.916,-2.9154,-2.9116,-2.9139,-2.9136,-2.9165,-2.9149,-2.9156,-2.9148,-2.9169,-2.9175,-2.9175,-2.9186,-2.9182,-2.9128,-2.9079,-2.9179,-2.9177,-2.8984,-2.8978,-2.8973,-2.8877,0,0,0,0,0,0,-2.9161,-2.9154,-2.9124,-2.9138,-2.9134,-2.9067,-2.9146,-2.9153,-2.9143,-2.9151,-2.9158,-2.9162,-2.9189,-2.9133,-2.9125,-2.9076,-2.9174,-2.8988,-2.8981,-2.8975,-2.8885,-2.8869,-2.8856,0,0,0,0,0,-2.9163,-2.9095,-2.9122,-2.9116,-2.9097,-2.9065,-2.9062,-2.9096,-2.9138,-2.9107,-2.9121,-2.9162,-2.9086,-2.9126,-2.9119,-2.9068,-2.8991,-2.8983,-2.8975,-2.8891,-2.8872,-2.8856,0,0,0,0,0,0,-2.9072,-2.9098,-2.9127,-2.9063,-2.9061,-2.9079,-2.904,-2.9075,-2.906,-2.9068,-2.911,-2.911,-2.9049,-2.9054,-2.9098,-2.8986,-2.9046,-2.9036,-2.8985,-2.8967,-2.8953,-2.8951,-2.9171,0,0,0,0,0,-2.9044,-2.9018,-2.9042,-2.8982,-2.898,-2.901,-2.8997,-2.9024,-2.9023,-2.9022,-2.9032,-2.9028,-2.9003,-2.8986,-2.8964,-2.8887,-2.8888,-2.8848,-2.8834,-2.8822,-2.8812,-2.8769,-2.8751,-2.8945,-2.8945,-2.8946,0,0,-2.8986,-2.8998,-2.8978,-2.8964,-2.8966,-2.8935,-2.9008,-2.8973,-2.895,-2.9016,-2.8965,-2.8973,-2.8971,-2.8904,-2.8875,-2.8906,-2.8759,-2.8812,-2.8802,-2.8798,-2.8759,-2.8741,-2.8724,-2.894,-2.8941,-2.8942,0,0,-2.8865,-2.8872,-2.8823,-2.8824,-2.8827,-2.8847,-2.8835,-2.8848,-2.8856,-2.8807,-2.8855,-2.8827,-2.8784,-2.8781,-2.8773,-2.8651,-2.8687,-2.8643,-2.8566,-2.8524,-2.8509,-2.8496,-2.845,-2.8433,-2.8634,-2.8633,-2.8633,0,-2.8792,-2.875,-2.8792,-2.8754,-2.8745,-2.8806,-2.8755,-2.8753,-2.8747,-2.8739,-2.8774,-2.8721,-2.8724,-2.8657,-2.8627,-2.862,-2.8606,-2.8641,-2.8508,-2.8495,-2.8483,-2.844,-2.8423,-2.8628,-2.8628,-2.8629,-2.8629,0,-2.8659,-2.8629,-2.8589,-2.8584,-2.8571,-2.8526,-2.8559,-2.8541,-2.8569,-2.8585,-2.8533,-2.854,-2.852,-2.8507,-2.8533,-2.8442,-2.8461,-2.8502,-2.8562,-2.8458,-2.8418,-2.8402,-2.862,-2.8622,-2.8623,-2.8625,0,0,-2.8478,-2.8499,-2.8483,-2.8481,-2.8489,-2.8465,-2.8423,-2.8406,-2.8388,-2.8383,-2.8346,-2.8309,-2.8347,-2.8338,-2.8365,-2.8329,-2.8229,-2.8374,-2.8374,-2.8344,-2.8127,-2.8094,-2.8074,-2.8255,-2.8252,-2.8249,-2.8126,0,-2.8359,-2.8289,-2.8326,-2.825,-2.8222,-2.828,-2.8242,-2.8242,-2.8256,-2.8232,-2.8248,-2.822,-2.8273,-2.8268,-2.8235,-2.8248,-2.8185,-2.8258,-2.8218,-2.8216,-2.8214,-2.8054,-2.8019,-2.7903,-2.8111,-2.8108,-2.8107,0,-2.821,-2.8201,-2.8122,-2.8136,-2.8125,-2.8091,-2.8078,-2.8056,-2.8056,-2.8069,-2.8059,-2.8095,-2.8052,-2.8114,-2.8054,-2.8103,-2.8089,-2.8093,-2.8089,-2.8084,-2.8153,-2.8042,-2.7867,-2.7848,-2.8083,-2.8085,-2.8086,0,-2.8083,-2.805,-2.7999,-2.7996,-2.8011,-2.7985,-2.7989,-2.7994,-2.7981,-2.7969,-2.7961,-2.7943,-2.7933,-2.7917,-2.7946,-2.799,-2.7881,-2.7946,-2.7887,-2.7886,-2.7859,-2.786,-2.7676,-2.7855,-2.7855,-2.7856,-2.7856,0,-2.7944,-2.7893,-2.7942,-2.791,-2.7854,-2.7897,-2.7839,-2.785,-2.7853,-2.7823,-2.7872,-2.7842,-2.7883,-2.7856,-2.7879,-2.7824,-2.7819,-2.7826,-2.7832,-2.782,-2.7819,-2.7809,-2.7817,-2.7851,-2.7852,-2.7853,-2.7854,0,-2.7791,-2.7822,-2.7769,-2.7788,-2.7792,-2.775,-2.7765,-2.7735,-2.7754,-2.7714,-2.7707,-2.7735,-2.7706,-2.7735,-2.7707,-2.7722,-2.7648,-2.7667,-2.7648,-2.7652,-2.759,-2.7595,-2.7392,-2.7366,-2.7564,-2.7562,-2.756,0,-2.7699,-2.7662,-2.7677,-2.7661,-2.7663,-2.7637,-2.7625,-2.7665,-2.765,-2.7648,-2.7617,-2.7593,-2.7576,-2.7527,-2.7543,-2.7521,-2.7538,-2.7469,-2.7535,-2.7524,-2.7534,-2.7535,-2.753,-2.7454,-2.7452,-2.745,-2.7448,0,-2.7532,-2.7549,-2.7531,-2.7517,-2.7502,-2.7493,-2.7487,-2.7471,-2.7512,-2.7492,-2.7465,-2.7451,-2.7424,-2.7398,-2.7382,-2.7385,-2.7421,-2.7428,-2.7413,-2.7398,-2.7388,-2.739,-2.7608,-2.7432,-2.7433,-2.7435,-2.7435,-2.7436,-2.7405,-2.7374,-2.738,-2.7357,-2.7358,-2.7351,-2.7324,-2.734,-2.7318,-2.73,-2.7325,-2.729,-2.7291,-2.7273,-2.7271,-2.7243,-2.7272,-2.725,-2.7244,-2.7237,-2.7227,-2.7395,-2.724,-2.7241,-2.7241,-2.7242,-2.7242,0,-2.7238,-2.7245,-2.7224,-2.7216,-2.7197,-2.7238,-2.7234,-2.7215,-2.7184,-2.7183,-2.7165,-2.7132,-2.7108,-2.7123,-2.7102,-2.7076,-2.7092,-2.7068,-2.7069,-2.7068,-2.7204,-2.7218,-2.7055,-2.7055,-2.7055,-2.7055,-2.7055,-2.7055,-2.7148,-2.7097,-2.7115,-2.7065,-2.7072,-2.704,-2.7033,-2.7027,-2.7026,-2.6988,-2.6968,-2.698,-2.6984,-2.6963,-2.6942,-2.6947,-2.6935,-2.6904,-2.6915,-2.7041,-2.7059,-2.7076,-2.709,-2.6902,-2.6902,-2.6781,-2.678,-2.6779]}]]